sat.trackr.live / text

‹ back to catalog

STARLINK-32320

NORAD 61638 · 2024-191T

PAYLOAD ACTIVE UNKNOWN

§ Identity

Operator
Country
US
Launch date
2024-10-23
Launch site
AFETR
Launch vehicle
Mass (kg)
RCS (m²)

Purposes: comms

External: N2YO · Heavens-Above · Gunter

§ Orbital elements

Epoch: 2026-05-25T04:56:56.430816Z

Period
94.27 min
Inclination
43.0013°
Eccentricity
0.0000795
Mean motion
15.27580308 rev/d
Perigee alt
482.5 km
Apogee alt
483.6 km
Semi-major
6,861.2 km
B*
1.3550e-4
RAAN
86.2759°
Arg perigee
258.1244°
Mean anomaly
101.9518°
Rev number
8,919

§ Raw data

STARLINK-323201 61638U 24191T   26145.20620869  .00003469  00000+0  13550-3 0  99902 61638  43.0013  86.2759 0000795 258.1244 101.9518 15.27580308 89192

JSON: /api/v1/satellites/61638 · /tle

For live sub-satellite position, see the globe view (requires WebGL).

§ Visibility from observer

Set your observer location to see the next 7 days of passes ≥ 10°. The values pass through the URL so the page stays shareable.

No JS? Fill the form by hand. The geolocation button needs JavaScript.